Location: Mentone
(34.5413°N, 85.5351°W)
Time: 16:06:09
(UTC-05:00)

Okean O Rocket - Visible Passes

Search period start: 23 April 2014 00:00
Search period end: 03 May 2014 00:00
Orbit: 625 x 648 km, 97.9° (Epoch: 22 April)

Date Brightness Start Highest point End Pass type
(mag) Time Alt. Az. Time Alt. Az. Time Alt. Az.
23 Apr 3.5 03:03:13 10° NE 03:06:21 26° E 03:06:21 26° E visible
23 Apr 2.9 04:39:48 10° NNW 04:43:11 22° WNW 04:43:52 21° W visible
24 Apr 2.4 03:25:09 10° NNE 03:29:06 48° E 03:29:06 48° E visible
24 Apr 3.5 05:03:28 10° NW 05:05:21 13° WNW 05:06:37 11° W visible
25 Apr 1.4 03:47:25 10° NNE 03:51:48 89° WNW 03:51:51 87° SW visible
26 Apr 4.4 02:35:49 10° ENE 02:37:05 12° E 02:37:05 12° E visible
26 Apr 1.8 04:09:57 10° N 04:14:08 47° WNW 04:14:36 45° W visible
27 Apr 3.6 02:56:39 10° NE 02:59:50 22° E 02:59:50 22° E visible
27 Apr 2.7 04:32:46 10° NNW 04:36:24 26° WNW 04:37:21 24° W visible
28 Apr 2.6 03:18:26 10° NNE 03:22:32 40° E 03:22:34 40° E visible
28 Apr 3.4 04:56:07 10° NNW 04:58:36 15° WNW 05:00:05 13° W visible
29 Apr 1.5 03:40:36 10° NNE 03:44:58 76° ESE 03:45:18 71° SSE visible
30 Apr 1.7 04:03:02 10° N 04:07:19 57° WNW 04:08:02 50° WSW visible
01 May 3.8 02:50:07 10° NE 02:53:09 18° E 02:53:15 18° E visible
01 May 2.5 04:25:46 10° N 04:29:36 31° WNW 04:30:46 27° W visible
02 May 2.9 03:11:43 10° NNE 03:15:40 33° E 03:15:59 33° ESE visible
02 May 3.2 04:48:54 10° NNW 04:51:49 18° WNW 04:53:30 15° W visible
